Dumas, TX

2:18 PM CDT on August 18, 2017 (GMT -0500)
Moore County

Weather History for KDUX - February, 2013

Change the Weather History Date:

Monday, February 25, 2013

  Actual Average (KDHT) Record (KDHT)
Temperature  
Mean Temperature 28 °F -  
Max Temperature 33 °F 51 °F 82 °F (1986)
Min Temperature 23 °F 23 °F 4 °F (1960)
Degree Days  
Heating Degree Days 37    
Moisture  
Dew Point 25 °F    
Average Humidity 89    
Maximum Humidity 100    
Minimum Humidity 69    
Precipitation  
Precipitation 0.00 in - - ()
Sea Level Pressure  
Sea Level Pressure 29.82 in    
Wind  
Wind Speed 31 mph (North)    
Max Wind Speed 43 mph    
Max Gust Speed 53 mph    
Averages and records for this station are not official NWS values.
T = Trace of Precipitation, MM = Missing Value Source: NWS Daily Summary

Daily Weather History Graph

Daily Weather History Graph

Search for Another Location

Airport or City:

Trip Planner

Search our weather history database for the weather conditions in past years. The results will help you decide how hot, cold, wet, or windy it might be!

Date:

Astronomy

Feb. 25, 2013 Rise Set
Actual Time 7:22 AM CST 6:39 PM CST
Civil Twilight 6:57 AM CST 7:05 PM CST
Nautical Twilight 6:27 AM CST 7:35 PM CST
Astronomical Twilight 5:57 AM CST 8:04 PM CST
Moon 6:52 PM CST (2/25) 6:55 AM CST (2/25)
Length of Visible Light 12h 08m
Length of Day
11h 16m
Full, 100% of the Moon is Illuminated
Feb 25
Full
Feb 25
Full
Mar 4
Last Quarter
Mar 11
New
Mar 19
First Quarter

Hourly Weather History & Observations

Time (CST) Temp. Windchill Dew Point Humidity Pressure Visibility Wind Dir Wind Speed Gust Speed Precip Events Conditions
12:15 AM 28.4 °F 13.0 °F 26.6 °F 93% 29.79 in - North 28.8 mph 32.2 mph N/A   Overcast
12:35 AM 28.4 °F 13.3 °F 26.6 °F 93% 29.78 in - North 27.6 mph 34.5 mph N/A   Overcast
12:55 AM 28.4 °F 13.0 °F 26.6 °F 93% 29.76 in - North 28.8 mph 36.8 mph N/A   Overcast
1:15 AM 28.4 °F 12.5 °F 26.6 °F 93% 29.75 in - North 31.1 mph 35.7 mph N/A   Overcast
1:35 AM 28.4 °F 12.7 °F 26.6 °F 93% 29.76 in - North 29.9 mph 36.8 mph N/A   Overcast
1:55 AM 28.4 °F 13.0 °F 26.6 °F 93% 29.77 in - North 28.8 mph 43.7 mph N/A   Overcast
2:15 AM 28.4 °F 12.3 °F 26.6 °F 93% 29.78 in - North 32.2 mph 39.1 mph N/A   Overcast
2:35 AM 26.6 °F 11.7 °F 26.6 °F 100% 29.79 in - North 24.2 mph 33.4 mph N/A   Overcast
2:55 AM 26.6 °F 9.3 °F 26.6 °F 100% 29.77 in - North 34.5 mph 39.1 mph N/A   Overcast
3:15 AM 26.6 °F 9.8 °F 26.6 °F 100% 29.76 in - North 32.2 mph 40.3 mph N/A   Overcast
3:35 AM 26.6 °F 9.6 °F 26.6 °F 100% 29.75 in - North 33.4 mph 44.9 mph N/A   Overcast
3:55 AM 26.6 °F 8.7 °F 26.6 °F 100% 29.74 in - North 38.0 mph 48.3 mph N/A   Overcast
4:15 AM 26.6 °F 8.9 °F 26.6 °F 100% 29.73 in - North 36.8 mph 49.5 mph N/A   Unknown
4:35 AM 26.6 °F 9.1 °F 26.6 °F 100% 29.72 in - North 35.7 mph 49.5 mph N/A   Unknown
4:55 AM 26.6 °F 8.1 °F 26.6 °F 100% 29.71 in - North 41.4 mph 47.2 mph N/A   Unknown
5:15 AM 26.6 °F 8.7 °F 26.6 °F 100% 29.72 in - North 38.0 mph 48.3 mph N/A   Unknown
5:35 AM 26.6 °F 8.9 °F 26.6 °F 100% 29.73 in - North 36.8 mph 47.2 mph N/A   Unknown
5:55 AM 26.6 °F 8.9 °F 26.6 °F 100% 29.74 in - North 36.8 mph 47.2 mph N/A   Unknown
6:15 AM 26.6 °F 8.9 °F 26.6 °F 100% 29.74 in - North 36.8 mph 49.5 mph N/A   Unknown
6:35 AM 28.4 °F 11.2 °F 26.6 °F 93% 29.75 in - North 38.0 mph 44.9 mph N/A   Unknown
6:55 AM 28.4 °F 11.6 °F 26.6 °F 93% 29.76 in - North 35.7 mph 50.6 mph N/A   Unknown
7:15 AM 26.6 °F 8.5 °F 26.6 °F 100% 29.76 in - North 39.1 mph 50.6 mph N/A   Unknown
7:35 AM 26.6 °F 8.3 °F 26.6 °F 100% 29.77 in - North 40.3 mph 52.9 mph N/A   Unknown
7:55 AM 26.6 °F 8.7 °F 26.6 °F 100% 29.78 in - North 38.0 mph 48.3 mph N/A   Unknown
8:15 AM 28.4 °F 11.4 °F 26.6 °F 93% 29.79 in - North 36.8 mph 47.2 mph N/A   Unknown
8:35 AM 26.6 °F 8.5 °F 26.6 °F 100% 29.80 in - North 39.1 mph 47.2 mph N/A   Unknown
8:55 AM 26.6 °F 8.7 °F 26.6 °F 100% 29.81 in - North 38.0 mph 50.6 mph N/A   Unknown
9:15 AM 26.6 °F 7.9 °F 26.6 °F 100% 29.81 in - North 42.6 mph 51.8 mph N/A   Unknown
9:35 AM 28.4 °F 11.0 °F 26.6 °F 93% 29.81 in - North 39.1 mph 47.2 mph N/A   Unknown
9:55 AM 28.4 °F 10.6 °F 26.6 °F 93% 29.81 in - North 41.4 mph 47.2 mph N/A   Unknown
10:15 AM 28.4 °F 11.8 °F 26.6 °F 93% 29.82 in - North 34.5 mph 48.3 mph N/A   Unknown
10:35 AM 28.4 °F 11.2 °F 26.6 °F 93% 29.83 in - North 38.0 mph 46.0 mph N/A   Unknown
10:55 AM 28.4 °F 11.4 °F 26.6 °F 93% 29.84 in - North 36.8 mph 47.2 mph N/A   Unknown
11:15 AM 28.4 °F 11.4 °F 26.6 °F 93% 29.84 in - North 36.8 mph 44.9 mph N/A   Mostly Cloudy
11:35 AM 28.4 °F 11.8 °F 28.4 °F 100% 29.85 in - North 34.5 mph 44.9 mph N/A   Overcast
11:55 AM 30.2 °F 14.1 °F 28.4 °F 93% 29.86 in - North 35.7 mph 42.6 mph N/A   Overcast
12:15 PM 30.2 °F 14.5 °F 28.4 °F 93% 29.86 in - North 33.4 mph 43.7 mph N/A   Overcast
12:35 PM 30.2 °F 13.9 °F 28.4 °F 93% 29.86 in - North 36.8 mph 44.9 mph N/A   Overcast
12:55 PM 30.2 °F 13.9 °F 26.6 °F 86% 29.86 in - North 36.8 mph 44.9 mph N/A   Overcast
1:15 PM 30.2 °F 13.9 °F 26.6 °F 86% 29.86 in - North 36.8 mph 48.3 mph N/A   Overcast
1:35 PM 30.2 °F 13.9 °F 26.6 °F 86% 29.85 in - North 36.8 mph 47.2 mph N/A   Overcast
1:55 PM 30.2 °F 14.1 °F 28.4 °F 93% 29.84 in - North 35.7 mph 46.0 mph N/A   Overcast
2:15 PM 30.2 °F 14.9 °F 28.4 °F 93% 29.84 in - North 31.1 mph 38.0 mph N/A   Overcast
2:35 PM 32.0 °F 17.6 °F 28.4 °F 87% 29.84 in - North 29.9 mph 38.0 mph N/A   Overcast
2:55 PM 32.0 °F 17.2 °F 26.6 °F 80% 29.84 in - North 32.2 mph 41.4 mph N/A   Mostly Cloudy
3:15 PM 32.0 °F 16.7 °F 26.6 °F 80% 29.84 in - North 34.5 mph 41.4 mph N/A   Scattered Clouds
3:35 PM 32.0 °F 16.7 °F 26.6 °F 80% 29.84 in - North 34.5 mph 43.7 mph N/A   Scattered Clouds
3:55 PM 32.0 °F 16.5 °F 26.6 °F 80% 29.84 in - North 35.7 mph 42.6 mph N/A   Scattered Clouds
4:15 PM 32.0 °F 17.6 °F 26.6 °F 80% 29.84 in - North 29.9 mph 41.4 mph N/A   Clear
4:35 PM 32.0 °F 17.9 °F 26.6 °F 80% 29.84 in - North 28.8 mph 40.3 mph N/A   Clear
4:55 PM 32.0 °F 17.9 °F 26.6 °F 80% 29.84 in - North 28.8 mph 39.1 mph N/A   Clear
5:15 PM 33.8 °F 20.5 °F 26.6 °F 75% 29.84 in - North 27.6 mph 34.5 mph N/A   Clear
5:35 PM 32.0 °F 18.4 °F 24.8 °F 75% 29.84 in - North 26.5 mph 35.7 mph N/A   Clear
5:55 PM 32.0 °F 18.9 °F 24.8 °F 75% 29.84 in - North 24.2 mph 31.1 mph N/A   Clear
6:15 PM 32.0 °F 19.8 °F 23.0 °F 69% 29.86 in - North 20.7 mph - N/A   Clear
6:35 PM 32.0 °F 20.5 °F 23.0 °F 69% 29.86 in - North 18.4 mph - N/A   Clear
6:55 PM 30.2 °F 18.9 °F 23.0 °F 75% 29.86 in - North 16.1 mph - N/A   Clear
7:15 PM 30.2 °F 19.8 °F 23.0 °F 75% 29.86 in - North 13.8 mph - N/A   Clear
7:35 PM 28.4 °F 18.0 °F 23.0 °F 80% 29.87 in - NNW 12.7 mph - N/A   Clear
7:55 PM 28.4 °F 19.1 °F 23.0 °F 80% 29.88 in - NNW 10.4 mph - N/A   Clear
8:15 PM 26.6 °F 15.7 °F 21.2 °F 80% 29.87 in - North 12.7 mph - N/A   Clear
8:35 PM 26.6 °F 16.8 °F 21.2 °F 80% 29.87 in - NNW 10.4 mph - N/A   Unknown
8:55 PM 23.0 °F 13.1 °F 21.2 °F 93% 29.88 in - NNW 9.2 mph - N/A   Unknown
9:15 PM 26.6 °F 15.2 °F 21.2 °F 80% 29.87 in - NNW 13.8 mph - N/A   Clear
9:35 PM 26.6 °F 16.2 °F 21.2 °F 80% 29.88 in - NNW 11.5 mph - N/A   Unknown
9:55 PM 26.6 °F 16.8 °F 21.2 °F 80% 29.89 in - NNW 10.4 mph - N/A   Clear
10:35 PM 23.0 °F 11.7 °F 19.4 °F 86% 29.88 in - NNW 11.5 mph - N/A   Unknown
10:55 PM 23.0 °F 13.9 °F 19.4 °F 86% 29.89 in - NNW 8.1 mph - N/A   Unknown
11:15 PM 23.0 °F 11.7 °F 19.4 °F 86% 29.90 in - NW 11.5 mph - N/A   Unknown
11:35 PM 23.0 °F 11.7 °F 19.4 °F 86% 29.90 in - WNW 11.5 mph - N/A   Unknown
11:55 PM 23.0 °F 11.1 °F 19.4 °F 86% 29.90 in - WNW 12.7 mph - N/A   Unknown